User: anonymous   Login
Location: Granada
(37.1830°N, 3.6000°W)
Time: 08:45:15
(UTC+01:00)
Language:

Iridium 70 - Orbit

View from above orbital plane
View from above orbital plane
View from above satellite
View from above satellite

Ground track
Ground track

The orbit data is extracted from the following two-line orbital elements,

1 25342U 98032A   18054.58321082 +.00000115 +00000-0 +34026-4 0  9991
2 25342 086.3967 119.2481 0002043 095.5160 264.6269 14.34220909034835
Epoch (UTC): 23 February 2018 13:59:49
Eccentricity: 0.0002043
inclination: 86.3967°
perigee height: 776 km
apogee height: 779 km
right ascension of ascending node: 119.2481°
argument of perigee: 95.5160°
revolutions per day: 14.34220909
mean anomaly at epoch: 264.6269°
orbit number at epoch: 3483

The dashed part of the orbit path shows where the satellite is in the earth's shadow,  

DLR